TimeMDT,TemperatureF,Dew PointF,Humidity,Sea Level PressureIn,VisibilityMPH,Wind Direction,Wind SpeedMPH,Gust SpeedMPH,PrecipitationIn,Events,Conditions,WindDirDegrees,DateUTC
12:53 AM,50.0,30.2,47,30.04,10.0,SSW,3.5,-,N/A,,Clear,210,2012-10-30 06:53:00
1:53 AM,48.9,28.9,46,30.08,10.0,West,4.6,-,N/A,,Clear,260,2012-10-30 07:53:00
2:53 AM,44.1,30.0,58,30.10,10.0,Calm,Calm,-,N/A,,Clear,0,2012-10-30 08:53:00
3:53 AM,45.0,30.9,58,30.07,10.0,SW,4.6,-,N/A,,Clear,220,2012-10-30 09:53:00
4:53 AM,42.1,30.9,65,30.09,10.0,Calm,Calm,-,N/A,,Mostly Cloudy,0,2012-10-30 10:53:00
5:53 AM,41.0,30.9,67,30.11,10.0,SSW,3.5,-,N/A,,Scattered Clouds,210,2012-10-30 11:53:00
6:53 AM,39.0,32.0,76,30.11,10.0,SE,3.5,-,N/A,,Overcast,140,2012-10-30 12:53:00
7:53 AM,39.0,30.9,73,30.12,10.0,WNW,3.5,-,N/A,,Clear,300,2012-10-30 13:53:00
8:53 AM,37.0,30.9,79,30.14,10.0,Calm,Calm,-,N/A,,Partly Cloudy,0,2012-10-30 14:53:00
9:53 AM,45.0,34.0,65,30.11,10.0,Calm,Calm,-,N/A,,Clear,0,2012-10-30 15:53:00
10:53 AM,50.0,34.0,54,30.07,10.0,ENE,3.5,-,N/A,,Clear,60,2012-10-30 16:53:00
11:53 AM,52.0,35.1,53,30.04,10.0,Calm,Calm,-,N/A,,Clear,0,2012-10-30 17:53:00
12:53 PM,55.9,35.1,45,30.00,10.0,West,4.6,-,N/A,,Partly Cloudy,270,2012-10-30 18:53:00
1:53 PM,57.9,36.0,44,29.98,10.0,Calm,Calm,-,N/A,,Partly Cloudy,0,2012-10-30 19:53:00
2:53 PM,64.0,32.0,30,29.96,10.0,West,12.7,17.3,N/A,,Scattered Clouds,280,2012-10-30 20:53:00
3:53 PM,66.0,32.0,28,29.95,10.0,NW,8.1,-,N/A,,Mostly Cloudy,320,2012-10-30 21:53:00
4:53 PM,62.6,33.8,34,29.94,10.0,Calm,Calm,-,N/A,,Scattered Clouds,0,2012-10-30 22:53:00
5:53 PM,61.0,32.0,34,29.96,10.0,WSW,6.9,-,N/A,,Clear,250,2012-10-30 23:53:00
6:53 PM,55.9,33.1,42,29.99,10.0,SW,6.9,-,N/A,,Scattered Clouds,220,2012-10-31 00:53:00
7:53 PM,53.1,34.0,48,30.00,10.0,Variable,3.5,-,N/A,,Clear,0,2012-10-31 01:53:00
8:53 PM,52.0,34.0,50,29.99,10.0,WSW,4.6,-,N/A,,Clear,250,2012-10-31 02:53:00
9:53 PM,46.9,34.0,61,30.01,10.0,SW,3.5,-,N/A,,Clear,220,2012-10-31 03:53:00
10:53 PM,46.9,34.0,61,30.00,10.0,Calm,Calm,-,N/A,,Partly Cloudy,0,2012-10-31 04:53:00
11:53 PM,46.0,34.0,63,30.01,10.0,SE,3.5,-,N/A,,Overcast,140,2012-10-31 05:53:00